EW4443 Weather Reports


time (UTC)temp
F
wind
direction
speed
knots
gust
knots
rain 1hr
in
rain 24hr
in
rain mn
in
humidity
%
barometer
mb
20260906020950 96 270 0.9 6.1 0.00 0.00 0.00 30 1008.7
20260906020449 96 270 0.9 6.1 0.00 0.00 0.00 27 1008.7
20260906015948 97 270 0.9 6.1 0.00 0.00 0.00 27 1008.7
20260906015449 97 45 0.9 5.2 0.00 0.00 0.00 27 1009.0
20260906014948 97 270 0.9 6.1 0.00 0.00 0.00 27 1009.0
20260906014447 97 270 0.9 6.1 0.00 0.00 0.00 27 1008.7
20260906013948 98 338 0.9 6.1 0.00 0.00 0.00 27 1009.0
20260906013718 98 45 0.9 6.1 0.00 0.00 0.00 27 1008.7
20260906012949 98 270 0.9 7.0 0.00 0.00 0.00 27 1008.7
20260906012449 98 338 0.9 7.0 0.00 0.00 0.00 27 1008.7
20260906011949 99 68 0.9 7.0 0.00 0.00 0.00 27 1008.7
20260906011449 99 293 1.7 7.8 0.00 0.00 0.00 27 1008.7
20260906010948 99 315 1.7 7.8 0.00 0.00 0.00 27 1008.7
20260906010448 100 338 0.9 7.0 0.00 0.00 0.00 25 1008.7
20260906005947 100 0 0.9 8.7 0.00 0.00 0.00 25 1008.7
20260906005447 100 338 1.7 8.7 0.00 0.00 0.00 25 1008.7
20260906004947 101 270 1.7 7.0 0.00 0.00 0.00 25 1008.7
20260906004448 101 270 0.9 7.0 0.00 0.00 0.00 25 1008.7
20260906003948 101 338 1.7 7.0 0.00 0.00 0.00 25 1008.7
20260906003719 101 338 1.7 7.8 0.00 0.00 0.00 25 1008.7
20260906002948 102 0 1.7 7.8 0.00 0.00 0.00 25 1008.7
20260906002719 102 0 1.7 7.8 0.00 0.00 0.00 25 1008.7
20260906001947 102 338 1.7 7.8 0.00 0.00 0.00 25 1008.7
20260906001447 102 270 0.9 7.0 0.00 0.00 0.00 25 1008.7
20260906000946 102 293 1.7 8.7 0.00 0.00 0.00 25 1008.3
20260906000448 103 0 1.7 8.7 0.00 0.00 0.00 25 1008.3
20260906000221 103 23 1.7 7.0 0.00 0.00 0.00 25 1008.3
20260905235718 103 270 1.7 7.0 0.00 0.00 0.00 25 1008.3
20260905235218 103 23 1.7 6.1 0.00 0.00 0.00 25 1008.7
20260905234447 103 338 0.9 7.0 0.00 0.00 0.00 25 1008.7
20260905233947 104 248 0.9 7.0 0.00 0.00 0.00 25 1008.7
20260905233717 104 248 0.9 7.0 0.00 0.00 0.00 25 1008.7
20260905232946 104 113 1.7 7.0 0.00 0.00 0.00 25 1008.7
20260905232446 104 338 0.9 7.0 0.00 0.00 0.00 27 1008.7
20260905231947 104 90 1.7 7.0 0.00 0.00 0.00 27 1008.7
20260905231447 104 338 0.9 7.0 0.00 0.00 0.00 27 1008.7
20260905230947 104 338 0.9 7.0 0.00 0.00 0.00 27 1008.7
20260905230447 104 0 1.7 7.0 0.00 0.00 0.00 27 1008.3
20260905225947 104 338 1.7 7.0 0.00 0.00 0.00 27 1008.7
20260905225447 104 270 1.7 7.0 0.00 0.00 0.00 27 1008.3
20260905224946 104 248 1.7 7.0 0.00 0.00 0.00 27 1008.7
20260905224446 104 0 0.9 4.3 0.00 0.00 0.00 29 1008.7
20260905223946 104 338 0.9 4.3 0.00 0.00 0.00 29 1008.7
20260905223445 104 45 0.9 5.2 0.00 0.00 0.00 29 1008.7
20260905223217 103 23 0.9 5.2 0.00 0.00 0.00 29 1008.7
20260905222446 103 0 0.9 7.0 0.00 0.00 0.00 29 1008.7
20260905221946 103 338 0.9 7.0 0.00 0.00 0.00 29 1009.0
20260905221446 103 23 0.9 4.3 0.00 0.00 0.00 27 1009.0
20260905220947 103 270 0.9 5.2 0.00 0.00 0.00 29 1009.0
20260905220445 103 45 0.9 6.1 0.00 0.00 0.00 29 1009.3
20260905215944 103 180 0.9 6.1 0.00 0.00 0.00 27 1009.0
20260905215445 103 270 1.7 6.1 0.00 0.00 0.00 29 1009.0
20260905214945 103 293 0.9 6.1 0.00 0.00 0.00 29 1009.3
20260905214446 103 270 0.0 4.3 0.00 0.00 0.00 30 1009.3
20260905213946 103 338 0.9 7.8 0.00 0.00 0.00 30 1009.3
20260905213446 103 338 0.9 7.8 0.00 0.00 0.00 30 1009.3
20260905212946 103 338 0.9 5.2 0.00 0.00 0.00 29 1009.7
20260905212446 103 23 0.9 7.0 0.00 0.00 0.00 30 1009.3
20260905211944 102 270 0.9 7.0 0.00 0.00 0.00 30 1009.7
20260905211444 102 270 0.9 6.1 0.00 0.00 0.00 30 1009.7
20260905210945 102 315 0.9 6.1 0.00 0.00 0.00 30 1009.7
20260905210444 102 270 0.9 5.2 0.00 0.00 0.00 29 1010.0
20260905205946 102 225 0.9 4.3 0.00 0.00 0.00 29 1010.0
20260905205446 102 270 0.0 5.2 0.00 0.00 0.00 30 1010.0
20260905205217 102 45 0.9 5.2 0.00 0.00 0.00 30 1010.5
20260905204445 101 315 0.9 5.2 0.00 0.00 0.00 30 1010.0
20260905203946 102 158 0.9 7.0 0.00 0.00 0.00 29 1010.5
20260905203444 102 293 0.9 7.0 0.00 0.00 0.00 29 1010.5
20260905202944 102 293 0.9 4.3 0.00 0.00 0.00 30 1010.5
20260905202714 102 0 0.9 5.2 0.00 0.00 0.00 30 1010.8
20260905201944 101 0 0.9 5.2 0.00 0.00 0.00 31 1010.8
20260905201445 101 45 0.0 3.5 0.00 0.00 0.00 31 1010.8
20260905200944 101 203 0.0 3.5 0.00 0.00 0.00 30 1010.8
20260905200445 101 203 0.9 4.3 0.00 0.00 0.00 30 1010.8
20260905200215 101 135 0.9 4.3 0.00 0.00 0.00 30 1010.8
20260905195445 101 68 0.9 3.5 0.00 0.00 0.00 30 1010.8
20260905195215 101 180 0.9 4.3 0.00 0.00 0.00 29 1011.1
20260905194444 101 158 0.9 4.3 0.00 0.00 0.00 29 1011.1
20260905193944 101 293 0.9 3.5 0.00 0.00 0.00 29 1011.1
20260905193444 101 270 0.9 5.2 0.00 0.00 0.00 29 1011.1
20260905192945 101 315 0.9 5.2 0.00 0.00 0.00 30 1011.5
20260905192445 101 68 0.9 4.3 0.00 0.00 0.00 30 1011.8
20260905191945 101 270 0.9 3.5 0.00 0.00 0.00 30 1011.5
20260905191444 101 338 0.9 3.5 0.00 0.00 0.00 30 1011.5
20260905190945 101 45 0.9 3.5 0.00 0.00 0.00 31 1011.5
20260905190444 100 90 0.0 3.5 0.00 0.00 0.00 31 1011.8
20260905185944 100 23 0.0 3.5 0.00 0.00 0.00 31 1011.8
20260905185444 100 45 0.0 2.6 0.00 0.00 0.00 32 1011.8
20260905184944 99 23 0.0 1.7 0.00 0.00 0.00 31 1011.8
20260905184444 99 45 0.0 4.3 0.00 0.00 0.00 31 1011.8
20260905183945 99 203 0.9 4.3 0.00 0.00 0.00 30 1012.1
20260905183447 99 180 0.0 3.5 0.00 0.00 0.00 30 1012.1
20260905182944 99 90 0.0 2.6 0.00 0.00 0.00 30 1012.1
20260905182449 99 315 0.0 1.7 0.00 0.00 0.00 31 1012.1
20260905181944 99 248 0.0 1.7 0.00 0.00 0.00 30 1012.5
20260905181715 99 225 0.0 2.6 0.00 0.00 0.00 30 1012.5
20260905180943 99 0 0.0 2.6 0.00 0.00 0.00 30 1012.1
20260905180444 100 338 0.0 2.6 0.00 0.00 0.00 30 1012.5
20260905175944 100 23 0.0 2.6 0.00 0.00 0.00 30 1012.5
20260905175444 100 270 0.0 0.9 0.00 0.00 0.00 31 1012.5
20260905174945 100 180 0.0 0.9 0.00 0.00 0.00 30 1012.5
20260905174444 100 45 0.0 2.6 0.00 0.00 0.00 31 1012.5
20260905173944 100 23 0.0 2.6 0.00 0.00 0.00 31 1012.1
20260905173444 99 23 0.0 3.5 0.00 0.00 0.00 31 1012.1
20260905172943 98 338 0.9 3.5 0.00 0.00 0.00 34 1012.5
20260905172444 98 45 0.0 2.6 0.00 0.00 0.00 35 1012.1
20260905171943 97 68 0.0 3.5 0.00 0.00 0.00 35 1012.1
20260905171444 96 45 0.9 3.5 0.00 0.00 0.00 35 1012.5
20260905170944 96 90 0.0 1.7 0.00 0.00 0.00 35 1012.5
20260905170445 96 0 0.0 2.6 0.00 0.00 0.00 35 1012.5
20260905165944 96 23 0.0 3.5 0.00 0.00 0.00 35 1012.5
20260905165716 95 45 0.0 3.5 0.00 0.00 0.00 37 1012.5
20260905164944 95 23 0.0 0.9 0.00 0.00 0.00 37 1012.5
20260905164443 94 203 0.0 0.9 0.00 0.00 0.00 35 1012.1
20260905163943 94 180 0.0 3.5 0.00 0.00 0.00 37 1012.1
20260905163443 94 338 0.9 3.5 0.00 0.00 0.00 39 1012.5
20260905162943 93 23 0.9 3.5 0.00 0.00 0.00 40 1012.5
20260905162444 92 68 0.0 2.6 0.00 0.00 0.00 41 1012.5
20260905161945 91 180 0.0 1.7 0.00 0.00 0.00 41 1012.5
20260905161444 90 203 0.0 1.7 0.00 0.00 0.00 41 1012.1
20260905160945 90 248 0.0 1.7 0.00 0.00 0.00 41 1012.1
20260905160444 89 270 0.0 2.6 0.00 0.00 0.00 43 1012.5
20260905155943 89 158 0.0 2.6 0.00 0.00 0.00 44 1012.5
20260905155444 89 180 0.0 2.6 0.00 0.00 0.00 43 1012.5
20260905154943 88 248 0.0 0.9 0.00 0.00 0.00 45 1012.5
20260905154443 88 270 0.0 0.0 0.00 0.00 0.00 44 1012.5
20260905153944 88 23 0.0 0.9 0.00 0.00 0.00 45 1012.5
20260905153445 87 90 0.0 0.9 0.00 0.00 0.00 48 1012.1
20260905152945 87 45 0.0 0.0 0.00 0.00 0.00 48 1012.1
20260905152444 87 248 0.0 0.0 0.00 0.00 0.00 48 1012.1
20260905151944 87 225 0.0 0.0 0.00 0.00 0.00 46 1012.1
20260905151443 86 225 0.0 0.0 0.00 0.00 0.00 48 1012.1
20260905150943 86 225 0.0 0.0 0.00 0.00 0.00 50 1012.1
20260905150443 86 135 0.0 0.0 0.00 0.00 0.00 49 1012.1
20260905145943 85 203 0.0 0.0 0.00 0.00 0.00 49 1012.1
20260905145443 85 180 0.0 1.7 0.00 0.00 0.00 49 1012.1
20260905144944 85 315 0.0 1.7 0.00 0.00 0.00 50 1012.1
20260905144715 84 315 0.0 0.0 0.00 0.00 0.00 50 1012.1
20260905143944 84 45 0.0 0.0 0.00 0.00 0.00 51 1012.1
20260905143445 83 90 0.0 0.9 0.00 0.00 0.00 50 1012.1
20260905142945 83 315 0.0 2.6 0.00 0.00 0.00 50 1012.1
20260905142443 83 180 0.0 2.6 0.00 0.00 0.00 51 1011.8
20260905141943 83 180 0.0 1.7 0.00 0.00 0.00 51 1012.1
20260905141443 82 135 0.0 1.7 0.00 0.00 0.00 53 1011.8
20260905140943 82 203 0.0 0.0 0.00 0.00 0.00 53 1011.8
20260905140444 82 45 0.0 0.0 0.00 0.00 0.00 53 1011.8
20260905135945 82 23 0.0 0.0 0.00 0.00 0.00 53 1011.5
20260905135444 82 158 0.0 0.0 0.00 0.00 0.00 54 1011.8
20260905134944 82 23 0.0 0.0 0.00 0.00 0.00 53 1011.5
20260905134444 82 23 0.0 0.0 0.00 0.00 0.00 53 1011.5
20260905133943 82 68 0.0 0.0 0.00 0.00 0.00 55 1011.5
20260905133437 82 68 0.0 0.0 0.00 0.00 0.00 55 1011.5
20260905132925 82 68 0.0 0.0 0.00 0.00 0.00 54 1011.1
20260905132424 82 68 0.0 0.0 0.00 0.00 0.00 54 1011.1
20260905131925 82 90 0.0 0.0 0.00 0.00 0.00 51 1011.1
20260905131426 82 68 0.0 0.0 0.00 0.00 0.00 53 1011.1
20260905130925 82 90 0.0 0.0 0.00 0.00 0.00 51 1011.1
20260905130426 82 45 0.0 0.0 0.00 0.00 0.00 51 1011.1
20260905125926 82 225 0.0 0.0 0.00 0.00 0.00 50 1011.1
20260905125426 82 203 0.0 1.7 0.00 0.00 0.00 50 1011.1
20260905124926 82 0 0.0 1.7 0.00 0.00 0.00 51 1011.1
20260905124424 82 45 0.0 0.0 0.00 0.00 0.00 51 1011.1
20260905123925 82 0 0.0 0.0 0.00 0.00 0.00 51 1010.8
20260905123424 82 270 0.0 0.0 0.00 0.00 0.00 51 1010.8
20260905123157 82 270 0.0 0.0 0.00 0.00 0.00 50 1010.8
20260905122430 82 180 0.0 0.0 0.00 0.00 0.00 50 1010.8
20260905122426 82 270 0.0 0.0 0.00 0.00 0.00 50 1010.8
20260905121656 82 248 0.0 0.0 0.00 0.00 0.00 50 1010.8
20260905120926 82 338 0.0 0.0 0.00 0.00 0.00 50 1010.8
20260905120655 82 45 0.0 0.0 0.00 0.00 0.00 50 1010.8
20260905115924 83 203 0.0 0.0 0.00 0.00 0.00 50 1010.8
20260905115425 83 270 0.0 0.0 0.00 0.00 0.00 50 1010.8
20260905114924 83 203 0.0 0.0 0.00 0.00 0.00 51 1010.5
20260905114656 83 180 0.0 0.0 0.00 0.00 0.00 50 1010.5
20260905113925 83 45 0.0 0.0 0.00 0.00 0.00 50 1010.5
20260905113426 83 45 0.0 0.0 0.00 0.00 0.00 50 1010.5
20260905112925 83 23 0.0 0.0 0.00 0.00 0.00 50 1010.5
20260905112425 83 90 0.0 0.0 0.00 0.00 0.00 50 1010.5
20260905111925 83 338 0.0 0.0 0.00 0.00 0.00 50 1010.8
20260905111424 83 338 0.0 0.0 0.00 0.00 0.00 50 1010.5
20260905110924 83 338 0.0 0.0 0.00 0.00 0.00 48 1010.5
20260905110424 83 338 0.0 0.0 0.00 0.00 0.00 49 1010.5
20260905105925 83 248 0.0 0.0 0.00 0.00 0.00 49 1010.5
20260905105425 83 45 0.0 0.0 0.00 0.00 0.00 49 1010.5
20260905104926 83 23 0.0 0.0 0.00 0.00 0.00 49 1010.5
20260905104426 83 248 0.0 0.0 0.00 0.00 0.00 48 1010.5
20260905103925 84 248 0.0 0.0 0.00 0.00 0.00 46 1010.5
20260905103424 84 180 0.0 0.0 0.00 0.00 0.00 49 1010.5
20260905102924 84 113 0.0 0.0 0.00 0.00 0.00 49 1010.5
20260905102424 84 113 0.0 0.0 0.00 0.00 0.00 49 1010.0
20260905101924 84 113 0.0 0.0 0.00 0.00 0.00 49 1010.5
20260905101425 84 68 0.0 0.0 0.00 0.00 0.00 49 1010.5
20260905100926 85 45 0.0 0.0 0.00 0.00 0.00 49 1010.0
20260905100425 85 23 0.0 0.0 0.00 0.00 0.00 48 1010.5
20260905095926 85 315 0.0 0.0 0.00 0.00 0.00 48 1010.0
20260905095425 85 0 0.0 0.0 0.00 0.00 0.00 46 1010.0
20260905094926 85 338 0.0 0.0 0.00 0.00 0.00 46 1010.0
20260905094426 85 338 0.0 0.0 0.00 0.00 0.00 48 1010.0
20260905093925 85 135 0.0 0.0 0.00 0.00 0.00 48 1010.5
20260905093424 85 113 0.0 0.0 0.00 0.00 0.00 48 1010.0
20260905092925 85 180 0.0 0.0 0.00 0.00 0.00 46 1010.0
20260905092425 85 293 0.0 0.0 0.00 0.00 0.00 45 1010.0
20260905091925 85 23 0.0 0.0 0.00 0.00 0.00 48 1010.5
20260905091426 85 45 0.0 0.0 0.00 0.00 0.00 46 1010.0
20260905090925 85 23 0.0 0.0 0.00 0.00 0.00 46 1010.0
20260905090425 85 68 0.0 0.0 0.00 0.00 0.00 46 1010.0
20260905085925 85 68 0.0 0.0 0.00 0.00 0.00 46 1009.7
20260905085424 85 68 0.0 0.0 0.00 0.00 0.00 45 1010.0
20260905085155 86 45 0.0 0.0 0.00 0.00 0.00 45 1010.0
20260905084655 86 45 0.0 0.0 0.00 0.00 0.00 46 1010.0
20260905083926 86 68 0.0 0.0 0.00 0.00 0.00 46 1010.0
20260905083426 86 338 0.0 0.0 0.00 0.00 0.00 45 1010.0
20260905083156 86 68 0.0 0.0 0.00 0.00 0.00 45 1010.0
20260905082425 86 293 0.0 0.0 0.00 0.00 0.00 45 1010.0
20260905081926 86 293 0.0 0.0 0.00 0.00 0.00 45 1010.0
20260905081424 86 45 0.0 0.0 0.00 0.00 0.00 45 1010.0
20260905080924 86 45 0.0 0.0 0.00 0.00 0.00 45 1010.0
20260905080424 87 45 0.0 0.0 0.00 0.00 0.00 45 1010.5
20260905075924 87 45 0.0 0.0 0.00 0.00 0.00 45 1010.5
20260905075425 87 68 0.0 0.0 0.00 0.00 0.00 45 1010.5
20260905074925 87 158 0.0 0.0 0.00 0.00 0.00 43 1010.0
20260905074657 87 180 0.0 0.0 0.00 0.00 0.00 44 1010.5
20260905074156 87 90 0.0 0.0 0.00 0.00 0.00 43 1010.0
20260905073426 87 68 0.0 0.0 0.00 0.00 0.00 44 1010.5
20260905073155 87 68 0.0 0.0 0.00 0.00 0.00 44 1009.7
20260905072425 87 68 0.0 0.0 0.00 0.00 0.00 43 1010.0
20260905071924 88 270 0.0 0.0 0.00 0.00 0.00 44 1010.0
20260905071424 88 270 0.0 0.0 0.00 0.00 0.00 43 1009.7
20260905070924 88 270 0.0 0.0 0.00 0.00 0.00 41 1010.0
20260905070425 88 270 0.0 0.0 0.00 0.00 0.00 41 1010.0
20260905065926 88 270 0.0 0.0 0.00 0.00 0.00 41 1010.0
20260905065426 88 270 0.0 0.0 0.00 0.00 0.00 41 1010.0
20260905064925 88 270 0.0 0.0 0.00 0.00 0.00 40 1010.0
20260905064424 89 270 0.0 0.0 0.00 0.00 0.00 41 1010.0
20260905063918 89 270 0.0 0.0 0.00 0.00 0.00 40 1010.0
20260905063406 89 270 0.0 0.0 0.00 0.00 0.00 40 1009.7
20260905062905 89 270 0.0 0.0 0.00 0.00 0.00 40 1009.7
20260905062405 89 270 0.0 0.0 0.00 0.00 0.00 40 1010.0
20260905061906 90 270 0.0 0.0 0.00 0.00 0.00 40 1010.0
20260905061637 90 270 0.0 0.0 0.00 0.00 0.00 39 1009.7
20260905060906 90 270 0.0 0.0 0.00 0.00 0.00 39 1010.0
20260905060407 90 270 0.0 0.0 0.00 0.00 0.00 40 1010.0
20260905055907 90 270 0.0 0.0 0.00 0.00 0.00 37 1009.7
20260905055405 90 270 0.0 0.0 0.00 0.00 0.00 37 1010.0
20260905054905 91 270 0.0 0.0 0.00 0.00 0.00 37 1009.7
20260905054405 91 270 0.0 0.0 0.00 0.00 0.00 37 1010.0
20260905053906 91 270 0.0 0.0 0.00 0.00 0.00 37 1009.7
20260905053406 91 270 0.0 0.0 0.00 0.00 0.00 35 1009.7
20260905052907 92 270 0.0 0.0 0.00 0.00 0.00 35 1009.3
20260905052638 92 270 0.0 0.9 0.00 0.00 0.00 35 1009.3
20260905051907 92 270 0.0 1.7 0.00 0.00 0.00 34 1009.3
20260905051406 92 270 0.0 1.7 0.00 0.00 0.00 34 1009.7
20260905050906 92 270 0.0 1.7 0.00 0.00 0.00 34 1009.3
20260905050407 92 270 0.0 1.7 0.00 0.00 0.00 34 1009.3
20260905045906 92 270 0.0 0.9 0.00 0.00 0.00 34 1009.3
20260905045405 93 270 0.0 1.7 0.00 0.00 0.00 32 1009.3
20260905044906 93 225 0.0 1.7 0.00 0.00 0.00 32 1009.3
20260905044406 93 270 0.0 0.9 0.00 0.00 0.00 31 1009.3
20260905043906 94 270 0.0 0.0 0.00 0.00 0.00 31 1009.7
20260905043407 94 270 0.0 0.9 0.00 0.00 0.00 30 1009.3
20260905042906 94 293 0.0 1.7 0.00 0.00 0.00 30 1009.3
20260905042637 94 270 0.0 1.7 0.00 0.00 0.00 30 1009.3
20260905041910 94 270 0.0 2.6 0.00 0.00 0.00 29 1009.3
20260905041906 94 293 0.0 2.6 0.00 0.00 0.00 29 1009.0
20260905040905 94 270 0.0 3.5 0.00 0.00 0.00 29 1009.0
20260905040405 94 270 0.0 3.5 0.00 0.00 0.00 29 1009.0
20260905035907 94 293 0.0 3.5 0.00 0.00 0.00 29 1009.0
20260905035406 94 180 0.0 3.5 0.00 0.00 0.00 29 1009.0
20260905034906 94 248 0.9 3.5 0.00 0.00 0.00 29 1009.0
20260905034638 95 270 0.0 3.5 0.00 0.00 0.00 29 1009.0
20260905033906 95 270 0.9 3.5 0.00 0.00 0.00 27 1009.0
20260905033405 95 225 0.0 4.3 0.00 0.00 0.00 29 1008.7
20260905032906 95 270 0.9 4.3 0.00 0.00 0.00 29 1009.0
20260905032405 94 225 0.9 3.5 0.00 0.00 0.00 29 1008.7
20260905031905 95 270 0.0 4.3 0.00 0.00 0.00 30 1009.0
20260905031406 95 23 0.9 4.3 0.00 0.00 0.00 30 1008.7
20260905030906 95 23 0.9 2.6 0.00 0.00 0.00 31 1008.7
20260905030406 94 270 0.0 2.6 0.00 0.00 0.00 34 1008.7
20260905025906 94 270 0.0 2.6 0.00 0.00 0.00 35 1008.0
20260905025407 94 270 0.0 0.9 0.00 0.00 0.00 35 1008.3
20260905025136 94 90 0.0 0.9 0.00 0.00 0.00 35 1008.0
20260905024405 94 90 0.0 2.6 0.00 0.00 0.00 35 1008.0
20260905024138 94 113 0.9 2.6 0.00 0.00 0.00 37 1008.0
20260905023405 94 68 0.0 1.7 0.00 0.00 0.00 35 1008.0
20260905022906 95 45 0.0 0.9 0.00 0.00 0.00 37 1008.0
20260905022406 95 45 0.0 0.9 0.00 0.00 0.00 37 1008.0
20260905022137 95 45 0.0 0.0 0.00 0.00 0.00 37 1007.3
20260905021407 95 45 0.0 0.0 0.00 0.00 0.00 35 1007.6